Printer-friendly version

IAU Minor Planet Center

Minor Planet Center

MPEC 2003-B47 : 2003 BV35

The following Minor Planet Electronic Circular may be linked-to from your own Web pages, but must not otherwise be redistributed electronically.


Read MPEC 2003-B46 Read MPEC 2003-B48


M.P.E.C. 2003-B47                                Issued 2003 Jan. 30, 16:36 UT

     The Minor Planet Electronic Circulars contain information on unusual
         minor planets and routine data on comets.  They are published
   on behalf of Commission 20 of the International Astronomical Union by the
          Minor Planet Center, Smithsonian Astrophysical Observatory,
                          Cambridge, MA 02138, U.S.A.

             Prepared using the Tamkin Foundation Computer Network

                              MPC@CFA.HARVARD.EDU
          URL http://cfa-www.harvard.edu/iau/mpc.html  ISSN 1523-6714

                                   2003 BV35

Observations:
     K03B35V* C2003 01 29.44462 09 30 11.20 +37 53 01.2          16.5 R      673
     K03B35V  C2003 01 29.45872 09 29 41.29 +37 44 25.1                      673
     K03B35V  C2003 01 29.46800 09 29 21.72 +37 38 45.3                      673
     K03B35V  C2003 01 29.47841 09 28 59.91 +37 32 24.7                      673
     K03B35V  C2003 01 29.49936 09 28 16.50 +37 19 39.3                      673
     K03B35V  C2003 01 29.51881 09 27 36.68 +37 07 49.8                      673
     K03B35V  C2003 01 29.97884 09 13 57.12 +32 41 18.8          16.2 R      620
     K03B35V  C2003 01 29.98066 09 13 54.02 +32 40 18.1          16.2 R      620
     K03B35V  C2003 01 29.98247 09 13 50.96 +32 39 17.4          16.3 R      620
     K03B35V  C2003 01 29.98473 09 13 47.19 +32 38 02.5          16.1 R      620
     K03B35V  C2003 01 29.99332 09 13 33.10 +32 32 47.1          16.4 R      J95
     K03B35V  C2003 01 29.99413 09 13 31.70 +32 32 20.1          16.6 R      J95
     K03B35V  C2003 01 29.99488 09 13 30.38 +32 31 53.9          16.1 R      J95
     K03B35V  C2003 01 29.99569 09 13 29.17 +32 31 28.2          16.4 R      J95
     K03B35V  C2003 01 29.99650 09 13 27.78 +32 31 00.8          16.3 R      J95
     K03B35V  C2003 01 29.99726 09 13 26.53 +32 30 35.7          16.0 R      J95
     K03B35V  C2003 01 29.99824 09 13 24.89 +32 30 02.9          16.4 R      J95
     K03B35V  C2003 01 30.30461 09 05 38.05 +29 45 07.5          16.3 R      734
     K03B35V  C2003 01 30.30618 09 05 35.82 +29 44 19.8          16.8 R      734
     K03B35V  C2003 01 30.30803 09 05 33.16 +29 43 23.0          16.5 R      734
     K03B35V  C2003 01 30.32876 09 05 02.78 +29 32 56.3                      446
     K03B35V  C2003 01 30.33373 09 04 57.52 +29 30 14.5          16.2 R      651
     K03B35V  C2003 01 30.33475 09 04 56.02 +29 29 42.3          16.2 R      651
     K03B35V  C2003 01 30.33549 09 04 54.93 +29 29 19.2          16.2 R      651
     K03B35V  C2003 01 30.34717 09 04 35.95 +29 23 19.2                      446
     K03B35V  C2003 01 30.35036 09 04 31.44 +29 21 40.6                      446

Observer details:
446 Kingsnake Observatory.  Observer J. McClusky.  0.45-m f/4.5 Newtonian
    + CCD.
620 Observatorio Astronomico de Mallorca.  Observers S. Sanchez, J. Nomen.
    0.30-m f/9 Schmidt-Cassegrain + CCD.
651 Grasslands Observatory, Tucson.  Observer J. E. McGaha.  0.62-m f/5.1
    Newtonian + CCD.
673 Table Mountain Observatory, Wrightwood.  Observer J. Young.  0.6-m
    reflector + CCD.
734 Farpoint Observatory.  Observer G. Hug.  0.30-m Schmidt-Cassegrain + CCD.
J95 Great Shefford.  Observer P. Birtwhistle.  0.30-m f/6.3 Schmidt-Cassegrain
    + CCD.

Orbital elements:
2003 BV35
Epoch 2003 Jan. 21.0 TT = JDT 2452660.5                 MPC
M  18.77576              (2000.0)            P               Q
n   0.43245734     Peri.   95.85644     +0.57468925     -0.72089967
a   1.7318377      Node   311.18542     +0.38208168     +0.65491299
e   0.5921528      Incl.   30.97656     +0.72370287     +0.22669945
P   2.28           H   21.9           G   0.15
From 24 observations 2003 Jan. 29-30.

Ephemeris:
2003 BV35                a,e,i = 1.73, 0.59, 31                  q = 0.7063
Date    TT    R. A. (2000) Decl.     Delta      r     Elong.  Phase     V
2003 01 31    08 51.27   +24 08.0    0.068    1.053   173.4     6.2    16.6
2003 02 01    08 36.04   +17 29.2    0.077    1.062   175.1     4.5    16.9
2003 02 02    08 25.02   +12 17.2    0.087    1.072   170.2     9.0    17.4
2003 02 03    08 16.74   +08 12.4    0.098    1.081   165.6    13.1    17.8
2003 02 04    08 10.33   +04 58.1    0.110    1.091   161.7    16.5    18.2
2003 02 05    08 05.25   +02 21.8    0.122    1.100   158.4    19.2    18.5
2003 02 06    08 01.15   +00 14.4    0.135    1.110   155.7    21.4    18.8
2003 02 07    07 57.79   -01 30.9    0.147    1.120   153.3    23.3    19.1
2003 02 08    07 55.02   -02 58.8    0.160    1.129   151.3    24.8    19.3
2003 02 09    07 52.70   -04 13.0    0.173    1.139   149.5    26.1    19.6
2003 02 10    07 50.75   -05 16.2    0.186    1.148   147.9    27.2    19.8

2003 02 12    07 47.73   -06 57.1    0.213    1.168   145.1    28.9    20.1
2003 02 14    07 45.58   -08 13.2    0.239    1.187   142.7    30.3    20.5
2003 02 16    07 44.09   -09 11.5    0.267    1.206   140.6    31.3    20.8
2003 02 18    07 43.10   -09 56.7    0.294    1.225   138.7    32.1    21.0
2003 02 20    07 42.50   -10 32.1    0.322    1.244   137.0    32.8    21.3
2003 02 22    07 42.23   -10 59.8    0.350    1.263   135.4    33.3    21.5
2003 02 24    07 42.24   -11 21.6    0.379    1.282   133.9    33.8    21.7
2003 02 26    07 42.49   -11 38.6    0.407    1.300   132.5    34.1    21.9
2003 02 28    07 42.95   -11 51.7    0.436    1.319   131.1    34.4    22.1
2003 03 02    07 43.60   -12 01.6    0.465    1.338   129.8    34.7    22.3

Brian G. Marsden             (C) Copyright 2003 MPC           M.P.E.C. 2003-B47

Read MPEC 2003-B46 Read MPEC 2003-B48


Our Web policy. Index to the CBAT/MPC/ICQ pages.


Valid HTML 4.01!